This is the latest recevied weather packets stored in our database for station/object G1YBJ-13. If no packets are shown the sender has not sent any weather packets the latest 10 day(s).
| Time | Temp. | Humidity | Pressure | Rain* | Wind** | Luminosity | Snow |
|---|---|---|---|---|---|---|---|
| 1777483745 | 17.22° C | 46% | 1024.8 hPa | - | - | - | - |
| 1777482845 | 18.89° C | 43% | 1024.8 hPa | - | - | - | - |
| 1777481943 | 20° C | 41% | 1024.8 hPa | - | - | - | - |
| 1777481042 | 20° C | 40% | 1024.7 hPa | - | - | - | - |
| 1777480141 | 20.56° C | 40% | 1024.8 hPa | - | - | - | - |
| 1777479240 | 21.11° C | 38% | 1025 hPa | - | - | - | - |
| 1777478339 | 22.22° C | 37% | 1025.1 hPa | - | - | - | - |
| 1777477438 | 21.67° C | 37% | 1025 hPa | - | - | - | - |
| 1777476536 | 22.78° C | 36% | 1025.1 hPa | - | - | - | - |
| 1777475635 | 22.22° C | 36% | 1025.1 hPa | - | - | - | - |
| 1777474735 | 22.78° C | 36% | 1025.1 hPa | - | - | - | - |
| 1777473833 | 22.78° C | 36% | 1025.3 hPa | - | - | - | - |
| 1777472932 | 22.22° C | 37% | 1025 hPa | - | - | - | - |
| 1777472033 | 21.67° C | 36% | 1025.2 hPa | - | - | - | - |
| 1777471129 | 21.67° C | 37% | 1025.5 hPa | - | - | - | - |
| 1777470228 | 22.22° C | 35% | 1025.7 hPa | - | - | - | - |
| 1777469328 | 22.22° C | 36% | 1025.9 hPa | - | - | - | - |
| 1777468426 | 22.22° C | 35% | 1026.2 hPa | - | - | - | - |
| 1777467525 | 21.67° C | 36% | 1026.2 hPa | - | - | - | - |
| 1777466623 | 21.67° C | 39% | 1026.4 hPa | - | - | - | - |
| 1777465722 | 21.11° C | 35% | 1026.3 hPa | - | - | - | - |
| 1777464821 | 21.11° C | 36% | 1026.2 hPa | - | - | - | - |
| 1777463920 | 21.67° C | 38% | 1026.4 hPa | - | - | - | - |
| 1777463018 | 21.11° C | 39% | 1026.4 hPa | - | - | - | - |
| 1777462117 | 20.56° C | 39% | 1026.4 hPa | - | - | - | - |
* Rain since midnight (hover to see other rain measurements)
** Current wind speed in m/s (hover to see current wind gust speed)